Hlavní strana
METAR-TAF:

METAR-TAF

Letiště :

Kajaani, Finsko

zeměpisná šířka: 64-17N, zeměpisná délka: 027-41E, výška: 143 m

Aktuální stav počasí

Zpráva byla vytvořena před 10 minutami, v 12:20 UTC
Jihojihovýchodní vítr 10 kt, proměnlivý mezi východojihovýchodním a jihojihozápadním
Teplota 21°C
Vlhkost vzduchu 26%
Tlak 1008 hPa
Viditelnost 10 km a více
Žádná oblačnost pod 1500 m, nevyskytují se cumulonimby.

METAR: EFKI 041220Z AUTO 15010KT 120V200 CAVOK 21/01 Q1008

Čas: 15:30 (12:30 UTC)


TAF: chybějící

Stav a předpovědi počasí z více než 4 000 letišť (zprávy METAR a TAF).

Červené a žluté tečky na mapě představují dostupné meteorologické stanice.

Když kurzor umístíte na tečku, zobrazí se název stanice.

Pak kliknutím zobrazíte stav a předpověď počasí.

Chcete-li změnit mapu, kliknutím na zelené tlačítko se znaménkem +mapu přiblížíte, kliknutím na zelené tlačítko se znaménkem – mapu oddálíte a kliknutím na zelené šipky přejdete na sousední mapy.


METAR-TAF: